#timestamp,LO_Frequency,Hit,StdDev 
1551106815.4,286047002.1,N
1551106835.2,286047001.5,N
1551106855.1,286047001.5,N
1551106856.0,286047001.5,N
1551106875.8,286047003.1,N
1551106895.7,286047002.9,N
1551106915.5,286047004.6,N
1551106935.3,286047004.5,N
1551106955.2,286047004.8,N
1551106975.0,286047005.3,N
1551106975.9,286047005.3,N
1551106995.7,286047005.2,N
1551107015.6,286047006.3,N
1551107035.4,286047004.5,N
1551107055.3,286047004.7,N
1551107075.1,286047006.0,N
1551107076.0,286047006.0,Y
1551107095.8,286047000.5,P
1551107115.7,286047000.1,N
1551107135.5,286047002.3,N
1551107155.4,286047001.7,N
1551107175.2,286047002.7,N
1551107195.0,286047002.6,N
1551107195.9,286047002.6,N
1551107215.8,286047004.4,Y
1551107235.6,286047002.5,P
1551107255.4,286047000.2,N
1551107275.3,286046999.9,N
1551107295.1,286047000.8,N
1551107315.9,286046998.1,N
1551107335.7,286047000.8,N
1551107355.5,286046998.1,N
1551107375.4,286046999.3,N
1551107395.2,286047001.0,N
1551107415.0,286047001.1,N
1551107415.9,286047001.1,N
1551107435.8,286046998.5,N
1551107455.6,286046998.3,N
1551107475.5,286047000.8,N
1551107495.3,286047000.7,N
1551107515.1,286047002.0,N
1551107535.9,286047001.5,N
1551107555.7,286047002.0,N
1551107575.5,286046999.7,N
1551107595.4,286047002.6,N
1551107615.2,286047002.8,N
1551107635.1,286047002.3,N
1551107636.0,286047002.3,N
1551107655.8,286047000.3,N
1551107675.6,286046998.2,N
1551107695.5,286047002.8,N
1551107715.3,286046999.7,N
1551107735.2,286047002.8,N
1551107755.9,286047000.7,N
1551107775.7,286047001.0,N
1551107795.6,286047002.8,N
1551107815.4,286047002.6,N
1551107835.3,286047001.3,N
1551107855.1,286047001.9,N
1551107856.0,286047001.9,N
1551107875.8,286047001.5,N
1551107895.7,286047002.5,N
1551107915.5,286047000.0,N
1551107935.3,286047002.7,N
1551107955.2,286047002.2,N
1551107975.0,286047002.0,N
1551107975.9,286047002.0,N
1551107995.8,286047001.9,N
1551108015.6,286047002.6,N
1551108035.4,286047001.3,N
1551108055.3,286047002.1,N
1551108075.1,286047000.4,N
1551108095.8,286047002.2,N
1551108115.7,286047002.3,N
1551108135.5,286047002.7,N
1551108155.4,286046999.8,N
1551108175.2,286047002.5,N
1551108195.0,286047002.1,N
1551108195.9,286047002.1,N
1551108215.8,286047002.2,N
1551108235.6,286047000.1,N
1551108255.4,286047001.8,N
1551108275.3,286047004.3,Y
1551108295.1,286047002.8,P
1551108315.9,286047002.6,P
1551108335.7,286047001.6,P
1551108355.5,286047002.6,Y
1551108375.4,286047001.0,P
1551108395.2,286046997.0,P
1551108415.1,286046999.1,N
1551108416.0,286046999.1,N
1551108435.9,286046998.8,N
1551108455.7,286046998.6,N
1551108475.5,286047001.2,N
1551108495.4,286046998.6,N
1551108515.2,286047000.9,N
1551108535.0,286047000.9,N
1551108536.0,286047000.9,N
1551108555.8,286047000.0,N
1551108575.6,286047002.4,N
1551108595.5,286047002.4,N
1551108615.3,286046999.8,N
1551108635.1,286047001.2,N
1551108655.9,286047000.8,N
1551108675.7,286046996.8,N
1551108695.6,286046997.4,N
1551108715.4,286046997.6,N
1551108735.2,286046997.2,N
1551108755.1,286046995.3,N
1551108756.0,286046995.3,N
1551108775.8,286046997.5,N
1551108795.6,286046999.2,N
1551108815.5,286046996.5,N
1551108835.3,286046999.5,N
1551108855.2,286046999.2,N
1551108875.9,286046998.5,N
1551108895.7,286046998.8,N
1551108915.6,286046999.1,N
1551108935.4,286046998.1,N
1551108955.2,286047001.2,N
1551108975.1,286046997.5,N
1551108976.0,286046997.5,N
1551108995.8,286046996.9,N
1551109015.7,286046999.2,N
1551109035.5,286046997.0,N
1551109055.3,286046999.1,N
1551109075.2,286046998.2,N
1551109095.0,286046999.1,N
1551109095.9,286046999.1,N
1551109115.7,286046999.0,N
1551109135.6,286046997.0,N
1551109155.4,286046998.4,N
1551109175.3,286046998.4,N
1551109195.1,286046998.9,N
1551109196.0,286046998.9,N
1551109215.8,286046998.3,N
1551109235.7,286046998.7,N
1551109255.5,286046998.7,N
1551109275.4,286046998.2,N
1551109295.2,286047001.0,N
1551109315.0,286047000.7,N
1551109315.9,286047000.7,N
1551109335.8,286047001.0,N
1551109355.6,286047000.6,N
1551109375.4,286047000.9,N
1551109395.3,286047000.9,N
1551109415.1,286047001.0,N
1551109435.9,286047000.4,N
1551109455.7,286046999.7,N
1551109475.5,286047000.4,N
1551109495.4,286047000.0,N
1551109515.2,286047001.1,N
1551109535.0,286046999.6,N
1551109535.9,286046999.6,N
1551109555.8,286046997.7,N
1551109575.6,286046997.6,N
1551109595.5,286046999.6,N
1551109615.3,286046996.7,N
1551109635.1,286046996.7,N
1551109655.9,286046996.6,N
1551109675.7,286046999.6,N
1551109695.5,286046999.0,N
1551109715.4,286047000.5,N
1551109735.2,286047000.7,N
1551109755.1,286047000.2,N
1551109756.0,286047000.2,N
1551109775.8,286047000.2,N
1551109795.6,286047000.6,N
1551109815.5,286046998.2,N
1551109835.3,286047001.2,N
1551109855.1,286046998.7,N
1551109875.9,286046999.3,N
1551109895.7,286046996.5,N
1551109915.6,286047001.0,N
1551109935.4,286046999.9,N
1551109955.2,286047000.9,N
1551109975.1,286047000.3,N
1551109976.0,286047000.3,N
1551109995.8,286047000.7,N
1551110015.6,286047000.1,N
1551110035.5,286046998.5,N
1551110055.3,286047000.9,N
1551110075.2,286046998.4,N
1551110095.9,286047000.8,N
1551110115.7,286047002.5,N
1551110135.6,286047000.4,N
1551110155.4,286047002.7,N
1551110175.3,286047002.3,N
1551110195.1,286047002.8,N
1551110196.0,286047002.8,N
1551110215.8,286047002.8,N
1551110235.7,286046999.9,N
1551110255.5,286047000.2,N
1551110275.3,286047002.8,N
1551110295.2,286047002.5,N
1551110315.0,286047002.8,N
1551110315.9,286047002.8,N
1551110335.8,286047002.1,N
1551110355.6,286047000.2,N
1551110375.4,286047004.3,N
1551110395.3,286047001.6,N
